• In Portugal
  • List of Countries
  • For 7 days
  • Water Temperature
  • Satellite Maps
  • Weather Map
  • Weather Widgets
  • user-avatar
    Login

    Hourly Weather Omaruru

    Today, 20 October, Friday

    Time Temperature Precipitation Wind Pressure Humidity
    00:00 +19°C° 0 mm 1 mps 660 mmHg 32%
    01:00 +19°C° 0 mm 1 mps 659 mmHg 34%
    02:00 +18°C° 0 mm 1 mps 659 mmHg 34%
    03:00 +18°C° 0 mm 1 mps 659 mmHg 34%
    04:00 +16°C° 0 mm 1 mps 659 mmHg 35%
    05:00 +19°C° 0 mm 1 mps 659 mmHg 31%
    06:00 +20°C° 0 mm 1 mps 660 mmHg 27%
    07:00 +21°C° 0 mm 1 mps 661 mmHg 25%
    08:00 +24°C° 0 mm 1 mps 661 mmHg 20%
    09:00 +27°C° 0 mm 2 mps 662 mmHg 15%
    10:00 +29°C° 0 mm 3 mps 662 mmHg 10%
    11:00 +32°C° 0 mm 4 mps 662 mmHg 10%
    12:00 +33°C° 0 mm 5 mps 662 mmHg 9%
    13:00 +35°C° 0 mm 6 mps 662 mmHg 8%
    14:00 +34°C° 0 mm 6 mps 662 mmHg 8%
    15:00 +34°C° 0 mm 6 mps 662 mmHg 9%
    16:00 +33°C° 0 mm 6 mps 661 mmHg 9%
    17:00 +30°C° 0 mm 5 mps 661 mmHg 12%
    18:00 +28°C° 0 mm 4 mps 661 mmHg 15%
    19:00 +26°C° 0 mm 3 mps 661 mmHg 18%
    20:00 +24°C° 0 mm 3 mps 661 mmHg 21%
    21:00 +23°C° 0 mm 2 mps 662 mmHg 24%
    22:00 +22°C° 0 mm 1 mps 662 mmHg 26%
    23:00 +21°C° 0 mm 1 mps 661 mmHg 27%

    Tomorrow, 21 October, Saturday

    Time Temperature Precipitation Wind Pressure Humidity
    00:00 +21°C° 0 mm 1 mps 661 mmHg 28%
    01:00 +20°C° 0 mm 1 mps 660 mmHg 28%
    02:00 +20°C° 0 mm 1 mps 660 mmHg 28%
    03:00 +19°C° 0 mm 1 mps 659 mmHg 27%
    04:00 +19°C° 0 mm 1 mps 659 mmHg 26%
    05:00 +20°C° 0 mm 2 mps 660 mmHg 22%
    06:00 +23°C° 0 mm 2 mps 661 mmHg 19%
    07:00 +25°C° 0 mm 3 mps 661 mmHg 15%
    08:00 +28°C° 0 mm 3 mps 662 mmHg 13%
    09:00 +30°C° 0 mm 3 mps 662 mmHg 10%
    10:00 +34°C° 0 mm 3 mps 663 mmHg 7%
    11:00 +35°C° 0 mm 3 mps 662 mmHg 7%
    12:00 +36°C° 0 mm 3 mps 662 mmHg 6%
    13:00 +37°C° 0 mm 2 mps 662 mmHg 6%
    14:00 +37°C° 0 mm 3 mps 662 mmHg 6%
    15:00 +39°C° 0 mm 5 mps 662 mmHg 6%
    16:00 +39°C° 0 mm 6 mps 661 mmHg 6%
    17:00 +35°C° 0 mm 6 mps 661 mmHg 9%
    18:00 +33°C° 0 mm 5 mps 661 mmHg 12%
    19:00 +29°C° 0 mm 5 mps 661 mmHg 15%
    20:00 +28°C° 0 mm 4 mps 661 mmHg 19%
    21:00 +27°C° 0 mm 3 mps 662 mmHg 22%
    22:00 +25°C° 0 mm 3 mps 662 mmHg 25%
    23:00 +24°C° 0 mm 2 mps 661 mmHg 26%

    Day after tomorrow, 22 October, Sunday

    Time Temperature Precipitation Wind Pressure Humidity
    00:00 +24°C° 0 mm 2 mps 661 mmHg 27%
    01:00 +23°C° 0 mm 2 mps 660 mmHg 28%
    02:00 +21°C° 0 mm 2 mps 660 mmHg 28%
    03:00 +22°C° 0 mm 1 mps 660 mmHg 28%
    04:00 +21°C° 0 mm 1 mps 660 mmHg 27%
    05:00 +23°C° 0 mm 1 mps 660 mmHg 24%
    06:00 +25°C° 0 mm 1 mps 661 mmHg 21%
    07:00 +26°C° 0 mm 2 mps 662 mmHg 18%
    08:00 +29°C° 0 mm 1 mps 663 mmHg 14%
    09:00 +32°C° 0 mm 1 mps 663 mmHg 11%
    10:00 +34°C° 0 mm 1 mps 663 mmHg 7%
    11:00 +36°C° 0 mm 2 mps 663 mmHg 7%
    12:00 +37°C° 0 mm 2 mps 663 mmHg 7%
    13:00 +38°C° 0 mm 3 mps 662 mmHg 7%
    14:00 +38°C° 0 mm 4 mps 662 mmHg 7%
    15:00 +39°C° 0 mm 5 mps 662 mmHg 8%
    16:00 +39°C° 0 mm 6 mps 661 mmHg 8%
    17:00 +35°C° 0 mm 6 mps 661 mmHg 11%
    18:00 +33°C° 0 mm 5 mps 661 mmHg 14%
    19:00 +30°C° 0 mm 5 mps 661 mmHg 17%
    20:00 +28°C° 0 mm 3 mps 661 mmHg 19%
    21:00 +27°C° 0 mm 2 mps 662 mmHg 21%
    22:00 +26°C° 0 mm 1 mps 662 mmHg 24%
    23:00 +25°C° 0 mm 1 mps 661 mmHg 25%

    23 October, Monday

    Time Temperature Precipitation Wind Pressure Humidity
    00:00 +25°C° 0 mm 1 mps 661 mmHg 25%
    01:00 +24°C° 0 mm 1 mps 661 mmHg 26%
    02:00 +24°C° 0 mm 1 mps 660 mmHg 26%
    03:00 +23°C° 0 mm 1 mps 660 mmHg 27%
    04:00 +22°C° 0 mm 1 mps 659 mmHg 27%
    05:00 +24°C° 0 mm 1 mps 660 mmHg 25%
    06:00 +25°C° 0 mm 1 mps 661 mmHg 22%
    07:00 +27°C° 0 mm 1 mps 662 mmHg 19%
    08:00 +29°C° 0 mm 1 mps 662 mmHg 17%
    09:00 +32°C° 0 mm 1 mps 663 mmHg 15%
    10:00 +34°C° 0 mm 1 mps 663 mmHg 13%
    11:00 +35°C° 0 mm 1 mps 662 mmHg 12%
    12:00 +36°C° 0 mm 1 mps 662 mmHg 11%
    13:00 +37°C° 0 mm 1 mps 662 mmHg 10%
    14:00 +37°C° 0 mm 3 mps 661 mmHg 11%
    15:00 +37°C° 0 mm 4 mps 661 mmHg 12%
    16:00 +36°C° 0 mm 6 mps 661 mmHg 13%
    17:00 +34°C° 0 mm 5 mps 661 mmHg 17%
    18:00 +32°C° 0 mm 4 mps 661 mmHg 20%
    19:00 +29°C° 0 mm 3 mps 661 mmHg 23%
    20:00 +28°C° 0 mm 3 mps 661 mmHg 26%
    21:00 +28°C° 0 mm 2 mps 661 mmHg 28%
    22:00 +27°C° 0 mm 1 mps 661 mmHg 30%
    23:00 +27°C° 0 mm 1 mps 661 mmHg 32%

    24 October, Tuesday

    Time Temperature Precipitation Wind Pressure Humidity
    00:00 +26°C° 0 mm 1 mps 660 mmHg 33%
    01:00 +26°C° 0 mm 1 mps 660 mmHg 34%
    02:00 +26°C° 0 mm 1 mps 660 mmHg 36%
    03:00 +25°C° 0 mm 1 mps 659 mmHg 38%
    04:00 +25°C° 0 mm 1 mps 659 mmHg 39%
    05:00 +26°C° 0 mm 2 mps 660 mmHg 37%
    06:00 +27°C° 0 mm 2 mps 661 mmHg 35%
    07:00 +28°C° 0 mm 2 mps 661 mmHg 33%
    08:00 +30°C° 0 mm 2 mps 661 mmHg 28%
    09:00 +32°C° 0 mm 2 mps 662 mmHg 24%
    10:00 +34°C° 0 mm 1 mps 662 mmHg 19%
    11:00 +36°C° 0 mm 2 mps 661 mmHg 17%
    12:00 +37°C° 0 mm 2 mps 661 mmHg 16%
    13:00 +38°C° 0 mm 2 mps 660 mmHg 14%
    14:00 +38°C° 0 mm 3 mps 660 mmHg 14%
    15:00 +38°C° 0 mm 4 mps 660 mmHg 14%
    16:00 +39°C° 0 mm 5 mps 660 mmHg 14%
    17:00 +36°C° 0 mm 5 mps 660 mmHg 17%
    18:00 +34°C° 0 mm 5 mps 660 mmHg 20%
    19:00 +32°C° 0 mm 6 mps 661 mmHg 23%
    20:00 +29°C° 0 mm 4 mps 661 mmHg 24%
    21:00 +28°C° 0 mm 3 mps 661 mmHg 26%
    22:00 +27°C° 0 mm 2 mps 661 mmHg 27%
    23:00 +27°C° 0 mm 2 mps 660 mmHg 27%

    25 October, Wednesday

    Time Temperature Precipitation Wind Pressure Humidity
    00:00 +26°C° 0 mm 1 mps 660 mmHg 27%
    01:00 +25°C° 0 mm 1 mps 660 mmHg 28%
    02:00 +25°C° 0 mm 1 mps 659 mmHg 27%
    03:00 +25°C° 0 mm 1 mps 659 mmHg 27%
    04:00 +24°C° 0 mm 1 mps 659 mmHg 27%
    05:00 +25°C° 0 mm 1 mps 660 mmHg 24%
    06:00 +26°C° 0 mm 1 mps 661 mmHg 22%
    07:00 +27°C° 0 mm 1 mps 661 mmHg 19%
    08:00 +29°C° 0 mm 1 mps 661 mmHg 16%
    09:00 +30°C° 0 mm 1 mps 662 mmHg 13%
    10:00 +32°C° 0 mm 2 mps 662 mmHg 10%
    11:00 +34°C° 0 mm 2 mps 662 mmHg 9%
    12:00 +35°C° 0 mm 3 mps 661 mmHg 9%
    13:00 +36°C° 0 mm 4 mps 661 mmHg 9%
    14:00 +35°C° 0 mm 5 mps 661 mmHg 9%
    15:00 +34°C° 0 mm 6 mps 661 mmHg 10%
    16:00 +34°C° 0 mm 7 mps 660 mmHg 10%
    17:00 +32°C° 0 mm 6 mps 661 mmHg 12%
    18:00 +30°C° 0 mm 5 mps 661 mmHg 14%
    19:00 +28°C° 0 mm 4 mps 661 mmHg 16%
    20:00 +27°C° 0 mm 3 mps 661 mmHg 17%
    21:00 +26°C° 0 mm 2 mps 661 mmHg 18%
    22:00 +25°C° 0 mm 2 mps 661 mmHg 20%
    23:00 +25°C° 0 mm 2 mps 660 mmHg 21%
    Show more